Theta_e
336 328 323 321 311 312 310 312 318 317 315 317 317 315 315 324 321 321 338 348 361 361 368 363 368 369 368 366 363 363 363 363 363 363 363 362 362 365 365 364 365 366 366 363 361 359 357 356 356
330 322 322 318 308 307 310 315 312 314 314 316 317 316 315 320 329 324 323 341 361 363 370 364 367 368 368 365 364 363 363 363 363 363 362 362 362 365 365 364 365 365 364 363 361 358 356 356 356
326 323 318 310 308 307 309 312 313 313 315 315 315 318 316 325 325 321 324 337 357 364 369 368 366 367 367 366 365 364 363 364 363 363 362 362 362 364 364 364 365 365 363 363 361 358 357 356 356
321 320 316 307 305 309 309 312 312 312 315 317 316 313 323 325 324 324 326 341 351 362 368 364 366 367 367 367 365 364 364 364 363 362 362 362 363 364 364 365 365 365 365 362 360 359 357 357 356
320 318 309 307 307 310 310 312 312 310 312 314 315 313 315 323 327 325 325 343 348 361 367 368 365 366 367 367 365 364 364 363 362 361 362 363 363 363 364 365 365 365 365 362 359 358 359 358 358
314 315 306 305 308 310 311 314 313 312 313 314 313 313 315 330 324 324 325 329 349 358 364 367 364 366 366 365 365 364 363 362 361 361 362 362 363 363 364 365 365 365 364 362 360 359 358 357 357
312 311 307 308 307 307 311 314 311 311 311 312 314 310 316 320 323 324 325 326 341 355 363 366 366 365 365 364 364 363 362 362 360 360 361 362 362 363 364 364 365 365 363 362 360 358 357 356 354
314 312 307 308 306 307 312 311 312 311 310 316 316 310 312 319 322 322 324 325 328 348 359 362 364 361 361 363 364 363 362 362 361 361 361 362 362 362 363 362 363 364 363 360 358 356 356 354 352
315 307 305 307 306 308 312 308 311 313 310 312 313 313 316 318 319 320 321 323 325 334 351 361 360 360 358 356 363 363 363 363 361 361 361 360 356 360 361 358 363 364 361 360 357 355 355 353 351
309 307 306 309 309 307 308 307 307 307 307 309 310 313 315 316 317 317 317 319 322 323 327 355 363 362 356 352 358 363 361 361 359 359 361 354 353 357 353 357 363 363 361 360 358 356 354 352 342
309 306 308 307 307 307 306 307 308 306 305 308 307 309 313 313 316 315 316 318 320 324 326 329 360 361 360 353 351 356 355 359 360 362 363 360 354 355 352 353 358 360 360 356 355 354 350 345 341
304 306 306 306 307 306 305 307 306 306 307 310 310 311 311 312 313 314 315 316 318 321 324 328 339 362 361 358 350 352 350 353 355 357 365 361 357 356 354 349 354 355 354 351 351 347 348 347 345
306 305 306 307 307 307 307 306 306 306 309 311 311 311 311 312 313 315 316 316 318 319 323 326 331 350 359 356 358 353 353 349 350 352 357 354 351 354 352 353 351 352 351 349 348 347 349 349 348
307 305 305 307 306 307 304 305 306 308 310 310 311 311 311 312 312 314 315 316 317 319 321 324 326 331 357 358 356 355 358 350 349 349 352 359 354 355 350 352 349 350 349 349 348 350 350 350 346
305 302 305 306 305 305 306 302 304 309 310 309 310 311 312 312 313 313 315 316 317 318 321 323 326 331 340 362 363 357 353 352 351 348 357 358 359 359 355 351 350 349 352 353 354 353 352 349 345
303 303 299 305 306 305 303 299 306 310 309 309 309 310 310 312 314 316 316 316 318 318 322 323 321 326 332 340 362 358 354 354 353 354 354 358 358 359 358 350 350 350 352 350 350 349 348 346 342
303 299 299 301 306 304 303 300 307 311 310 308 308 309 311 314 316 319 320 320 319 322 326 326 331 329 334 337 356 363 355 354 355 354 354 358 354 352 355 349 350 356 349 349 348 347 348 344 341
298 298 299 299 304 305 303 303 307 310 309 307 307 311 312 312 314 317 318 320 322 324 326 329 332 338 342 340 342 359 353 352 354 355 355 358 355 352 355 349 350 352 348 347 346 351 348 345 342
300 299 298 302 305 302 302 303 306 308 308 306 309 309 310 311 314 316 317 319 320 323 324 326 329 338 337 333 329 346 350 350 353 356 359 359 357 355 356 349 350 351 348 349 356 351 353 341 346
300 299 299 302 303 303 302 302 306 307 305 308 308 309 310 311 312 314 315 316 318 320 323 326 327 335 334 332 336 337 353 349 353 354 356 356 359 358 357 354 350 352 346 354 355 354 341 341 344
300 299 299 298 302 304 303 301 303 304 306 309 310 310 311 311 310 312 313 314 316 318 320 323 325 329 333 338 335 337 354 351 351 351 351 353 359 358 358 357 353 354 350 348 355 354 351 338 342
296 301 300 299 299 296 303 293 301 304 304 307 309 310 309 310 311 312 313 313 314 316 318 320 324 325 327 335 335 339 342 344 337 352 358 354 360 355 355 358 357 357 349 348 352 352 347 349 338
297 302 300 301 300 299 300 296 300 304 301 304 307 308 309 311 311 311 312 313 313 315 316 317 321 323 325 328 327 325 333 351 338 353 352 355 359 357 352 358 358 358 351 351 347 351 350 347 343
303 301 303 304 300 294 300 298 297 301 303 304 306 307 309 310 311 311 313 313 313 314 314 315 317 320 323 323 323 319 324 349 341 346 347 355 355 357 357 357 358 359 353 349 351 354 355 352 348
302 300 296 294 294 293 300 296 299 304 306 305 304 306 309 310 310 310 310 310 311 312 313 313 314 317 321 319 320 315 320 347 344 344 350 351 355 354 357 358 357 356 358 354 348 355 357 357 349
299 298 294 286 290 293 299 293 302 307 308 307 307 308 309 310 309 309 308 308 308 310 311 312 311 315 318 319 320 315 317 324 345 349 353 351 351 351 361 358 357 357 359 358 353 356 355 355 356
300 297 302 294 296 292 296 301 305 307 305 307 308 308 308 308 308 307 308 308 306 308 310 311 311 313 317 318 321 316 316 318 327 349 349 351 354 351 354 358 357 358 358 358 358 353 355 356 356
300 303 294 296 287 287 293 295 297 302 304 306 305 306 308 308 307 306 306 306 307 307 309 311 311 312 315 318 320 318 316 319 322 342 348 348 346 349 352 354 354 356 358 358 358 353 356 356 354
299 296 297 297 295 289 288 293 304 303 304 304 306 307 307 306 306 305 305 306 306 305 306 309 310 311 313 315 318 320 320 320 321 328 347 349 345 345 351 355 354 354 356 357 357 353 352 351 354
301 299 299 293 290 293 291 291 305 306 305 306 305 307 307 307 306 305 305 304 305 304 305 306 308 309 312 314 315 318 322 321 321 322 329 348 346 339 341 348 350 350 351 352 354 352 350 348 347
Wind_Speed
15 14 9 7 9 9 13 2 8 6 10 11 9 10 9 20 17 8 16 19 17 3 17 15 9 11 13 17 17 15 15 15 14 14 15 16 16 16 14 14 13 13 13 13 13 11 10 9 9
15 7 8 9 9 12 8 13 7 15 9 9 6 11 8 18 14 12 16 17 14 5 15 15 10 10 13 14 16 16 15 16 15 14 14 15 16 16 15 13 13 13 14 13 12 12 10 9 9
14 9 11 7 13 13 8 15 12 7 5 8 8 7 5 7 14 10 16 14 10 5 14 13 13 9 12 13 14 16 16 15 15 15 14 14 15 15 15 14 12 12 14 13 12 12 10 9 8
7 7 7 10 14 6 10 11 8 4 4 8 11 2 7 4 10 15 18 15 9 5 12 22 15 10 12 14 14 15 16 15 15 15 15 15 15 14 13 13 11 11 11 11 11 11 10 9 8
8 7 10 11 13 11 6 8 5 6 6 11 10 10 9 5 12 17 19 13 13 3 6 17 18 13 12 14 15 15 16 16 16 15 14 15 15 15 13 13 11 10 10 10 10 10 9 8 7
9 5 10 11 9 10 4 8 6 6 8 9 8 12 8 8 13 17 18 16 8 7 3 16 14 13 13 14 15 16 16 16 16 16 15 13 13 14 13 13 13 11 10 9 9 9 8 7 6
12 9 13 13 8 1 9 4 7 9 9 8 10 13 10 5 19 18 17 14 7 3 8 15 13 12 11 13 14 15 16 16 16 15 15 14 13 13 12 11 10 10 10 9 9 9 8 7 6
8 7 16 7 8 6 9 3 3 8 11 11 9 7 14 18 19 18 16 14 14 6 5 6 10 14 14 14 13 15 16 16 15 16 15 14 13 12 12 10 10 10 11 10 10 9 9 8 6
6 8 10 6 2 6 7 8 7 9 11 10 9 10 13 17 18 16 15 13 9 5 2 3 9 15 15 16 14 13 16 17 16 14 14 13 12 14 15 14 16 11 12 11 10 9 9 8 7
8 8 9 9 8 7 10 9 9 9 8 10 10 12 12 14 15 16 15 13 13 8 13 8 5 7 16 13 15 14 14 13 13 15 15 13 14 12 14 13 14 13 11 10 10 10 9 9 9
2 7 9 5 7 8 9 10 9 10 10 10 11 15 14 16 12 14 15 16 16 14 10 15 9 6 6 14 12 9 9 9 11 15 14 13 12 11 11 9 9 9 11 9 10 9 9 12 10
10 1 3 4 3 8 9 10 10 8 11 9 8 12 14 16 14 13 14 15 16 15 16 14 12 7 5 8 11 12 11 12 11 14 16 11 9 10 10 10 12 11 10 12 11 9 10 12 8
10 2 4 5 7 7 9 13 12 14 6 7 9 11 13 13 13 15 13 13 14 15 17 16 18 10 8 12 8 9 12 12 14 13 15 13 13 10 11 10 11 11 12 12 11 11 9 7 7
5 7 9 8 7 6 11 14 13 14 6 11 11 13 13 13 14 14 16 15 14 13 14 13 17 14 13 10 16 5 10 13 13 13 14 16 12 10 12 11 11 12 12 12 11 9 8 7 9
8 12 9 11 3 9 9 17 10 4 11 14 14 12 13 13 14 15 15 16 16 15 15 12 14 16 15 17 16 12 9 13 13 13 15 18 15 12 13 12 11 11 11 12 10 9 8 8 8
10 8 13 14 8 0 5 13 7 10 11 15 15 13 11 12 15 16 18 15 16 17 16 15 15 18 18 15 16 13 12 11 11 12 12 18 17 14 13 11 11 11 9 9 9 9 9 9 8
10 10 6 10 5 8 8 16 16 13 12 11 10 8 11 12 13 13 13 15 16 16 18 18 16 18 18 17 11 16 17 11 13 13 12 17 19 18 13 12 11 11 10 10 11 10 9 9 8
9 12 11 11 6 11 15 19 17 12 12 8 4 7 9 11 14 13 13 14 15 16 16 17 15 16 15 14 10 12 15 13 13 14 15 19 15 19 14 13 12 11 11 11 11 10 8 7 7
11 13 14 13 8 9 15 19 19 13 9 4 4 6 8 11 13 13 14 14 14 14 16 17 18 16 13 13 13 10 15 12 14 15 20 19 18 18 16 12 12 12 12 12 11 10 8 7 7
11 13 15 10 4 13 19 18 19 11 7 4 4 5 8 10 12 14 15 15 16 15 15 16 17 16 14 15 12 14 11 12 17 17 19 19 21 18 16 15 14 15 12 12 13 11 10 10 8
13 12 11 13 16 22 19 23 12 8 7 10 8 4 8 11 14 16 17 16 16 16 16 15 17 18 16 18 14 14 14 13 16 17 14 15 22 21 18 18 13 15 12 12 12 12 13 11 9
12 4 10 15 13 10 7 8 13 19 15 14 9 6 8 11 14 17 18 17 17 17 15 18 16 16 17 18 19 16 19 17 13 18 13 16 21 20 20 17 15 16 13 13 13 12 12 10 10
11 11 16 16 16 14 18 10 14 12 15 15 3 5 8 11 15 20 20 18 17 17 14 17 18 16 17 17 16 15 24 17 12 15 16 15 18 18 17 18 17 14 14 11 16 13 11 10 8
11 17 19 16 10 9 14 10 9 5 3 4 2 6 9 14 19 21 20 19 16 16 14 14 18 19 16 16 17 18 28 22 13 13 17 13 13 14 20 20 17 16 15 15 15 16 16 12 11
12 13 5 6 10 10 6 8 15 7 7 2 4 8 13 18 18 18 19 21 19 16 17 15 18 18 17 16 15 17 21 23 20 16 16 16 12 14 18 19 19 16 16 14 14 16 16 15 12
7 6 5 6 7 12 19 10 4 7 8 2 3 8 13 17 19 20 20 19 20 19 18 17 18 19 18 14 13 12 17 15 16 15 11 12 13 12 16 19 19 19 19 16 16 14 13 15 12
7 6 10 7 15 12 11 14 15 13 6 10 10 12 17 20 19 21 21 17 16 18 21 19 18 20 17 16 11 10 12 14 17 18 16 10 13 14 18 22 20 21 20 18 17 13 15 14 14
11 7 4 4 7 8 10 17 8 6 5 10 12 17 17 19 19 19 18 19 18 16 19 20 19 20 19 18 13 8 9 11 14 15 13 17 9 15 17 19 20 20 20 19 17 13 16 14 13
9 10 7 4 8 6 9 5 4 8 7 11 14 17 15 20 18 18 20 19 19 18 20 21 18 19 18 16 17 13 9 9 10 11 12 13 10 14 22 21 21 21 20 20 19 18 17 18 14
11 13 13 6 6 7 9 14 11 2 4 13 14 17 18 19 19 17 18 20 18 16 19 20 21 20 18 17 17 17 10 7 8 10 14 14 12 7 8 16 18 20 21 20 20 18 15 18 17
Wind_Direction
271 238 247 254 244 229 260 186 34 81 93 10 360 5 357 53 3 39 14 2 354 19 138 161 139 146 158 152 154 154 153 154 156 159 159 154 150 144 140 142 140 138 138 131 128 130 129 129 123
292 249 236 267 254 250 226 88 90 51 17 341 358 354 6 80 39 27 1 3 360 336 137 178 144 148 153 160 156 155 157 158 160 162 164 159 155 148 145 148 148 147 146 140 138 136 137 137 133
255 252 263 230 236 258 40 45 43 27 15 8 355 317 26 20 45 13 358 353 18 308 141 160 143 155 153 163 162 158 159 161 161 165 168 164 159 152 149 153 154 154 151 148 144 141 144 145 145
242 201 237 255 257 73 13 49 18 310 68 0 4 9 101 95 37 4 342 346 13 328 157 133 139 157 162 164 167 164 161 162 165 168 171 167 164 157 153 154 156 157 154 152 148 145 149 155 153
234 262 258 232 249 84 42 21 341 337 360 334 355 351 338 116 51 3 342 352 354 46 115 140 141 158 171 168 169 167 165 163 165 168 174 173 169 162 159 157 158 160 155 154 153 150 155 157 163
246 276 252 241 220 95 109 0 359 6 336 329 3 329 304 109 36 352 338 333 3 353 180 134 139 155 172 171 170 169 165 165 166 168 170 177 175 169 166 163 162 160 157 157 157 154 155 163 169
260 266 272 296 319 175 88 11 357 339 310 343 344 312 269 328 5 334 320 320 332 43 175 146 156 171 172 173 172 170 165 166 166 168 170 175 177 173 171 167 163 158 155 160 158 161 161 177 175
292 286 271 257 260 103 102 316 358 309 331 326 289 317 317 343 332 317 315 318 309 340 211 168 160 179 195 185 179 172 169 165 169 168 170 173 174 173 174 165 163 161 158 166 169 169 169 179 182
268 260 252 291 48 5 24 345 334 336 297 312 302 302 344 336 322 321 317 312 312 338 288 173 187 184 198 195 182 181 174 167 167 172 172 167 193 187 178 197 156 169 169 173 175 175 171 177 194
254 260 19 25 4 326 334 331 325 321 309 292 341 334 336 333 328 323 317 313 311 319 325 156 211 251 193 209 180 200 192 190 192 187 185 202 204 193 204 187 165 166 175 176 178 182 181 199 202
117 306 37 47 29 324 319 300 342 300 294 0 318 321 329 326 321 326 326 324 320 313 308 324 166 220 235 208 189 192 201 200 196 199 191 209 202 196 208 182 181 191 184 192 187 187 209 209 236
257 74 334 350 324 301 306 323 290 315 307 326 309 316 315 316 322 321 324 327 321 323 313 296 315 162 257 270 207 189 206 196 198 201 197 198 218 197 196 204 193 198 185 211 193 199 214 224 223
256 139 258 267 290 290 311 293 301 292 316 286 300 295 299 304 310 313 319 312 311 322 332 325 314 302 178 256 258 204 200 201 204 197 195 205 208 200 195 207 196 191 201 200 199 216 189 201 215
36 280 282 265 278 279 307 294 293 280 346 302 305 303 303 313 311 307 307 312 318 313 305 308 315 317 266 207 252 215 212 212 206 201 196 203 208 197 200 210 209 199 208 192 213 198 188 220 210
278 269 253 232 226 278 339 272 227 359 307 305 304 311 320 317 321 321 321 314 311 307 303 301 310 304 320 246 228 248 223 216 200 208 198 190 208 203 205 205 203 212 201 210 197 196 194 202 222
257 257 255 139 204 248 243 289 280 324 292 299 308 314 313 346 347 341 339 320 312 313 319 320 304 300 299 305 245 229 241 209 206 207 194 188 202 209 193 202 202 213 199 203 204 208 189 214 204
187 272 287 291 180 252 235 286 285 294 295 295 295 320 344 333 341 351 328 314 316 324 321 311 308 298 293 292 279 242 227 228 214 199 200 190 205 206 187 211 197 212 200 190 214 207 205 200 214
336 311 295 284 288 238 281 281 286 298 281 284 314 315 336 339 341 337 327 324 317 315 316 317 303 295 290 289 278 254 233 243 218 202 202 184 201 200 190 207 198 196 200 201 207 204 193 214 195
290 275 273 271 293 301 270 284 281 278 271 232 296 330 336 338 337 339 335 322 312 308 310 309 305 301 293 288 283 251 238 227 241 217 199 184 187 196 187 203 190 185 202 204 196 188 185 210 182
265 267 269 302 226 291 288 277 276 251 211 230 268 303 322 326 330 330 332 331 314 303 301 303 301 299 306 296 280 281 230 223 222 211 199 182 178 193 189 204 182 187 193 197 178 187 193 207 197
254 274 297 308 305 276 266 271 212 178 215 201 237 288 319 328 329 327 326 323 319 306 302 301 308 308 306 296 282 270 248 232 235 218 198 186 178 185 197 201 187 182 200 182 181 183 203 194 192
277 54 295 291 295 296 312 299 201 194 199 225 211 273 329 327 321 326 321 321 319 306 309 300 300 304 298 315 309 290 260 236 225 212 195 185 186 181 185 196 210 179 194 180 185 187 200 216 188
278 326 290 281 276 280 266 235 271 158 221 226 182 330 309 316 327 327 321 319 315 303 304 303 303 304 302 311 313 301 291 245 206 225 193 192 182 179 191 196 204 188 191 181 174 180 204 206 205
292 277 270 256 254 259 252 241 280 293 219 48 298 296 313 319 324 326 324 319 310 312 311 313 300 298 302 309 316 307 310 245 216 213 205 194 187 186 188 194 198 197 195 185 182 181 185 207 215
232 280 307 258 193 234 115 254 255 264 170 266 315 311 325 312 328 325 321 320 318 312 320 312 306 297 307 316 319 314 305 268 224 222 206 167 188 191 192 192 195 199 196 182 190 181 177 202 204
296 307 279 270 272 308 327 271 261 66 99 152 254 280 299 325 329 323 322 322 316 324 315 316 311 308 313 316 321 317 313 321 250 221 233 188 186 191 188 197 194 194 191 192 184 174 189 187 213
126 259 28 308 264 249 237 252 194 132 180 224 251 314 323 339 323 327 326 318 327 320 317 314 312 309 310 313 317 308 315 314 315 243 237 218 191 197 194 194 196 191 193 189 179 184 187 184 196
258 27 224 211 275 294 295 303 306 166 251 0 324 329 327 325 326 330 325 330 322 326 320 316 316 311 311 309 313 294 307 302 310 289 242 236 230 210 190 190 193 191 191 182 181 191 179 197 187
176 223 228 274 272 280 304 279 74 325 356 310 325 315 331 326 324 330 334 332 325 338 322 317 316 310 310 310 313 315 294 304 303 293 260 231 214 245 203 186 189 193 190 184 181 181 186 188 195
275 271 183 220 243 251 291 277 290 345 260 308 312 324 340 320 327 337 327 333 336 327 324 321 322 315 310 312 310 309 301 303 306 318 324 226 207 197 305 203 191 195 195 183 183 183 190 186 195